Location: Bilsen
(53.7722°N, 9.8765°E)
Time: 02:52:31
(UTC+00:00)

Cosmos 1238 - Pass Details

Date: 18 February 2020
Orbit: 392 x 1426 km, 83.0° (Epoch: 09 April)

Event Time Altitude Azimuth Distance (km) Brightness Sun altitude
Rises 05:02:34 0° 194° (SSW) 2,307 7.9 -14.2°
Reaches altitude 10° 05:04:32 10° 197° (SSW) 1,434 6.8 -13.9°
Maximum altitude 05:07:32 70° 282° (WNW) 432 4.0 -13.5°
Drops below altitude 10° 05:10:44 10° 7° (N) 1,533 7.2 -13.0°
Sets 05:12:55 0° 10° (N) 2,491 8.3 -12.7°
